Pagrindinis puslapis
METAR-TAF:

METAR-TAF

Oro uostai :

Altus, Oklahoma, Jungtinės Amerikos Valstijos

platuma: 34-41-55N, ilguma: 099-20-17W, Aukštis: 437 m

Dabartinis oras

Ataskaita buvo paskelbta 22 minutes, ne 16:15 UTC
Ramus vėjas
Temperatūra 27°C
Drėgmė 48%
Slėgis 1021 hPa
Matomumas: 16.1 km
Giedras dangus

METAR: KAXS 031615Z AUTO 00000KT 10SM CLR 27/15 A3015 RMK AO2 T02740148

Laikas: 11:37 (16:37 UTC)


TAF: trūkstamas

Orai ataskaitas ir orų prognozės (METAR, TAF).

turimą stotys yra geltonos ir raudonos taškus žemėlapyje.

Perkelti pele per norėdami pamatyti stoties vardą.

Tada spustelėkite, norėdami matyti oro stebėjimo ir prognozės.

Norėdami pakeisti žemėlapį: spustelėkite ant žalios mygtukų su juodo kryžiaus žemyn,; žalią mygtuką su brūkšneliu, jei norite nutolinti; arba žalių rodyklių gretimoms žemėlapius.


METAR-TAF: